Regional Weather Roundup
Issued by NWS Mt. Holly, NJ

Home | Current Version | Previous Version | Text Only | Print | Product List | Glossary On
Versions: 1 2 3 4 5 6 7 8 9 10 11 12 13 14 15 16 17 18 19 20 21 22 23 24 25 26 27 28 29 30 31 32 33 34 35 36 37 38 39 40 41 42 43 44 45 46 47 48 49 50
000
ASUS41 KPHI 272312
RWRPHI

REGIONAL WEATHER ROUNDUP
NATIONAL WEATHER SERVICE MOUNT HOLLY NJ
700 PM EDT TUE JUN 27 2017

NOTE:  "FAIR" INDICATES FEW OR NO CLOUDS BELOW 12,000 FEET WITH NO
SIGNIFICANT WEATHER AND/OR OBSTRUCTIONS TO VISIBILITY.

 * = STATION DOES NOT REPORT PRECIPITATION (E.G. RAIN, SNOW, ETC.)
        OR FOG.

NJZ015>026-280000-
SOUTHERN NEW JERSEY

CITY           SKY/WX    TMP DP  RH WIND       PRES   REMARKS
POMONA         MOSUNNY   78  53  41 W7        29.95S
WILDWOOD*      MOSUNNY   73  59  61 S7        29.98R
MILLVILLE      MOSUNNY   77  54  44 W9        29.96R
WRIGHTSTOWN    SUNNY     77  51  41 W12       29.92R
MOUNT HOLLY    MOSUNNY   76  50  40 W6        29.95R
TRENTON        MOSUNNY   75  52  44 NW6       29.94R

$$
NJZ001>014-280000-
NORTHERN NEW JERSEY

CITY           SKY/WX    TMP DP  RH WIND       PRES   REMARKS
SUSSEX         PTSUNNY   68  49  50 VRB5      29.95S
ANDOVER*         N/A     68  55  63 CALM      29.96S
MORRISTOWN     PTSUNNY   72  50  46 NW10      29.96R THUNDER
NEWARK         PTSUNNY   75  50  41 W12       29.94R
TETERBORO      MOSUNNY   73  49  42 W12       29.92R
CALDWELL       PTSUNNY   75  49  39 W5        29.95R
SOMERVILLE     PTSUNNY   70  54  56 VRB5      29.94R
ALLAIRE*       MOSUNNY   72  60  66 E5        29.95S
TOMS RIVER*    MOSUNNY   78  51  38 W9        29.95R

$$
PAZ043-044-047-054-055-060>062-066>071-280000-
EASTERN PENNSYLVANIA

CITY           SKY/WX    TMP DP  RH WIND       PRES   REMARKS
PHILADELPHIA   PTSUNNY   78  48  34 W15       29.96R
NORTH PHILA    MOSUNNY   77  50  38 W8        29.96S
BLUE BELL*     MOSUNNY   72  48  43 W7        29.97R
DOYLESTOWN     CLOUDY    74  50  42 W6        29.95R
QUAKERTOWN*    CLOUDY    72  48  43 W5        29.98R
PERKASIE*      CLOUDY    72  50  46 W7        29.98R
POTTSTOWN      MOSUNNY   72  48  42 NW8       29.98R
LANCASTER      MOSUNNY   74  49  41 NW15      29.98R
COATESVILLE    CLOUDY    72  46  40 W10       29.99R
READING        PTSUNNY   73  48  41 W13G21    29.96R
ALLENTOWN      PTSUNNY   73  47  39 W13G21    29.96R
MOUNT POCONO   MOSUNNY   64  48  56 W12G20    29.99R
HAZLETON         N/A     68  45  42 W7        30.03R
LEHIGHTON      MOCLDY    72  45  37 W5        29.98R
WILKES BARRE   PTSUNNY   70  50  49 NW7       29.97R

$$
DEZALL-MDZ008-012-015-019-020-280000-
DELAWARE AND EASTERN MARYLAND

CITY           SKY/WX    TMP DP  RH WIND       PRES   REMARKS
WILMINGTON     MOSUNNY   77  49  37 W9        29.96S
DOVER          MOSUNNY   77  56  48 W12       29.95S
GEORGETOWN     CLOUDY    75  54  47 VRB7      29.99R THUNDER
EASTON         PTSUNNY   75  54  46 S9        30.03R
ABERDEEN       PTSUNNY   77  48  36 W7        29.97S
PATUXENT       CLOUDY    73  59  61 S8        29.98R
OCEAN CITY     CLOUDY    72  61  68 S6        29.98S
WALLOPS ISLAND CLOUDY    77  55  46 W5        29.98S
CAMBRIDGE      MOSUNNY   75  57  53 N3        29.99R
SALISBURY      CLOUDY    74  56  53 W6        29.98S

$$
PAZ001-021-NYZ056-072-MDZ011-DCZ001-280000-
OTHER NEARBY LOCATIONS

CITY           SKY/WX    TMP DP  RH WIND       PRES   REMARKS
HARRISBURG     MOSUNNY   74  47  38 NW14G22   29.98R
STATE COLLEGE  PTSUNNY   64  50  59 W9G17     30.04S
WILLIAMSPORT   CLOUDY    63  55  75 W7        30.00R
BINGHAMTON     MOSUNNY   62  48  60 SW7       29.97S
NEW YORK CITY  MOSUNNY   73  51  46 CALM      29.96R
BALTIMORE      MOSUNNY   78  46  32 NW13G22   29.97S
WASHINGTON DC  PTSUNNY   80  45  28 NW12      29.98S

$$



USA.gov is the U.S. government's official web portal to all federal, state and local government web resources and services.